Starlink 5897

operational
NORAD ID: 55931 Int'l Des: 2023-037 Owner: SPXS Country: US Constellation: starlink
LEOCIRCULAR

Über Starlink 5897

Beschreibung wird geladen...

Live-Position

3D-Globus wird geladen...

Nächste Überflüge

Höhenverlauf

Altitude vs Time

uPlot chart will show altitude changes over time

Zweizeiliger Elementsatz

1 55931U 23037T 25352.18971185 -.00000471 00000-0 -31693-4 0 9995
2 55931 69.9995 149.7686 0003005 268.3745 91.7070 14.98332158151281
Epoch: 18. Dez. 2025 • Age: 12 hours

Aktueller Status

Höhe 594.2 km
Geschwindigkeit 7.56 km/s
Subsatellitenpunkt -64.84°S, 114.88°E
Startdatum 17. März 2023
Alter 2.7 years
Typ internet

Technische Details

Klassifizierung Payload
Masse 305.00 kg
Trockenmasse 290.00 kg
Gesamtmasse 305.00 kg
Länge 0.20 m
Durchmesser 2.80 m
Spannweite 9.00 m
Form Box + pan
Hersteller SPXS
Bus-Typ Starlink
Phasenstatus In Orbit
Besitzer/Staat SPXS/US

Große Konstellationen

Loading constellations...